PAL212 RPLL-RKSI

Flight info

Callsign PAL212
Flight time N/A
Altitude 36000
Route CAB2R CAB B462 LAO M646 POTIB Q14 TNN W4 ANLOT B1 APU DCT DRAKE Q11 WP900 L4 LIPLO Y741 ATOTI Y722 OLMEN OLMEN2E
Aircraft A35K/H-SDE2E3GHIJ3J4J5LM1ORWXY/LB1D1

Departure

Time 2026-05-01 13:38
Airport Ninoy Aquino International Airport (RPLL)

Arrival

Time N/A
Airport Incheon International Airport (RKSI)
Time Latitude Longitude Altitude Speed Heading
2026-05-01 12:39 14.50427 121.00347 75 ft 0 kts 95°
2026-05-01 13:18 14.50427 121.00339 75 ft 2 kts 97°
2026-05-01 13:19 14.50430 121.00322 75 ft 2 kts 105°
2026-05-01 13:19 14.50436 121.00307 75 ft 2 kts 123°
2026-05-01 13:19 14.50449 121.00293 75 ft 2 kts 184°
2026-05-01 13:20 14.50433 121.00291 75 ft 2 kts 185°
2026-05-01 13:20 14.50417 121.00290 75 ft 2 kts 185°
2026-05-01 13:20 14.50400 121.00288 75 ft 2 kts 185°
2026-05-01 13:21 14.50376 121.00286 75 ft 0 kts 185°
2026-05-01 13:29 14.50298 121.00279 75 ft 10 kts 185°
2026-05-01 13:30 14.50084 121.00270 74 ft 9 kts 240°
2026-05-01 13:31 14.50020 121.00154 74 ft 0 kts 240°
2026-05-01 13:31 14.49969 121.00062 75 ft 9 kts 242°
2026-05-01 13:32 14.49883 120.99965 75 ft 7 kts 163°
2026-05-01 13:33 14.49881 120.99966 75 ft 0 kts 163°
2026-05-01 13:35 14.49836 120.99989 75 ft 10 kts 150°
2026-05-01 13:36 14.49812 121.00052 75 ft 10 kts 69°
2026-05-01 13:36 14.49847 121.00119 75 ft 2 kts 60°
2026-05-01 13:37 14.49848 121.00120 75 ft 1 kts 60°
2026-05-01 13:37 14.49904 121.00221 74 ft 48 kts 60°
2026-05-01 13:37 14.50204 121.00759 74 ft 123 kts 60°
2026-05-01 13:37 14.50763 121.01762 240 ft 188 kts 59°
2026-05-01 13:38 14.52046 121.04128 1756 ft 190 kts 61°
2026-05-01 13:38 14.52722 121.05382 2026 ft 211 kts 61°
2026-05-01 13:38 14.53477 121.06786 2243 ft 236 kts 61°
2026-05-01 13:39 14.54308 121.08330 2657 ft 252 kts 61°
2026-05-01 13:39 14.55175 121.09927 3279 ft 258 kts 60°
2026-05-01 13:39 14.56339 121.11352 3883 ft 264 kts 37°
2026-05-01 13:39 14.58000 121.12109 4510 ft 268 kts
2026-05-01 13:40 14.59863 121.12227 5163 ft 271 kts 359°
2026-05-01 13:40 14.61763 121.12174 5784 ft 275 kts 357°
2026-05-01 13:40 14.63683 121.12034 6405 ft 278 kts 353°
2026-05-01 13:40 14.65631 121.11829 7033 ft 282 kts 354°
2026-05-01 13:41 14.67605 121.11622 7656 ft 285 kts 354°
2026-05-01 13:41 14.69584 121.11408 8272 ft 288 kts 353°
2026-05-01 13:41 14.71583 121.11186 8874 ft 291 kts 353°
2026-05-01 13:41 14.73609 121.10958 9471 ft 294 kts 353°
2026-05-01 13:42 14.75656 121.10727 10063 ft 297 kts 353°
2026-05-01 13:42 14.77729 121.10491 10458 ft 307 kts 353°
2026-05-01 13:42 14.79879 121.10246 10718 ft 320 kts 353°
2026-05-01 13:42 14.82142 121.09988 10979 ft 333 kts 353°
2026-05-01 13:43 14.84483 121.09722 11237 ft 345 kts 353°
2026-05-01 13:43 14.86903 121.09446 11483 ft 355 kts 353°
2026-05-01 13:43 14.89404 121.09161 11720 ft 365 kts 353°
2026-05-01 13:43 14.91952 121.08870 11942 ft 374 kts 353°
2026-05-01 13:44 14.94570 121.08571 12163 ft 381 kts 353°
2026-05-01 13:44 14.97225 121.08268 12457 ft 386 kts 353°
2026-05-01 13:44 14.99886 121.07965 12773 ft 389 kts 353°
2026-05-01 13:44 15.02617 121.07653 13100 ft 392 kts 353°
2026-05-01 13:45 15.05314 121.07345 13413 ft 395 kts 353°
2026-05-01 13:45 15.08062 121.07031 13728 ft 397 kts 353°
2026-05-01 13:45 15.10817 121.06716 14031 ft 400 kts 353°
2026-05-01 13:45 15.13587 121.06399 14330 ft 402 kts 353°
2026-05-01 13:46 15.16382 121.06080 14626 ft 404 kts 353°
2026-05-01 13:46 15.19180 121.05760 14914 ft 406 kts 353°
2026-05-01 13:46 15.21994 121.05438 15201 ft 408 kts 353°
2026-05-01 13:46 15.24798 121.05117 15474 ft 410 kts 353°
2026-05-01 13:47 15.27647 121.04791 15749 ft 412 kts 353°
2026-05-01 13:47 15.30508 121.04463 16018 ft 414 kts 353°
2026-05-01 13:47 15.32408 121.04246 16191 ft 415 kts 353°
2026-05-01 13:47 15.36269 121.03803 16532 ft 418 kts 353°
2026-05-01 13:48 15.38192 121.03583 16696 ft 419 kts 353°
2026-05-01 13:48 15.41095 121.03250 16936 ft 421 kts 353°
2026-05-01 13:48 15.44969 121.02806 17245 ft 423 kts 353°
2026-05-01 13:48 15.46932 121.02581 17398 ft 424 kts 353°
2026-05-01 13:49 15.49878 121.02241 17620 ft 426 kts 353°
2026-05-01 13:49 15.52823 121.01789 17834 ft 427 kts 350°
2026-05-01 13:49 15.55746 121.01238 18039 ft 429 kts 349°
2026-05-01 13:49 15.58683 121.00650 18235 ft 431 kts 348°
2026-05-01 13:50 15.61603 121.00067 18431 ft 432 kts 349°
2026-05-01 13:50 15.64602 120.99484 18625 ft 434 kts 349°
2026-05-01 13:50 15.67534 120.98930 18810 ft 435 kts 349°
2026-05-01 13:50 15.70513 120.98380 18992 ft 436 kts 349°
2026-05-01 13:51 15.73511 120.97833 19166 ft 438 kts 349°
2026-05-01 13:51 15.76514 120.97289 19331 ft 439 kts 349°
2026-05-01 13:51 15.79539 120.96741 19498 ft 440 kts 349°
2026-05-01 13:51 15.82558 120.96193 19663 ft 442 kts 349°
2026-05-01 13:52 15.85611 120.95639 19823 ft 443 kts 349°
2026-05-01 13:52 15.88651 120.95086 19981 ft 444 kts 349°
2026-05-01 13:52 15.91659 120.94538 20129 ft 445 kts 349°
2026-05-01 13:52 15.94722 120.93980 20276 ft 446 kts 349°
2026-05-01 13:53 15.97784 120.93422 20412 ft 448 kts 349°
2026-05-01 13:53 16.03948 120.92298 20683 ft 450 kts 349°
2026-05-01 13:53 16.07030 120.91736 20819 ft 451 kts 349°
2026-05-01 13:54 16.10136 120.91169 20948 ft 452 kts 349°
2026-05-01 13:54 16.13233 120.90603 21068 ft 453 kts 349°
2026-05-01 13:54 16.16307 120.90043 21190 ft 454 kts 349°
2026-05-01 13:54 16.19430 120.89472 21313 ft 455 kts 349°
2026-05-01 13:55 16.22539 120.88904 21429 ft 456 kts 349°
2026-05-01 13:55 16.25686 120.88328 21543 ft 457 kts 349°
2026-05-01 13:55 16.28823 120.87755 21655 ft 458 kts 349°
2026-05-01 13:55 16.31974 120.87178 21768 ft 459 kts 349°
2026-05-01 13:56 16.35116 120.86603 21876 ft 459 kts 349°
2026-05-01 13:56 16.38224 120.86035 21976 ft 460 kts 349°
2026-05-01 13:56 16.41397 120.85454 22074 ft 461 kts 349°
2026-05-01 13:56 16.44558 120.84875 22173 ft 462 kts 349°
2026-05-01 13:57 16.47723 120.84295 22272 ft 463 kts 349°
2026-05-01 13:57 16.50910 120.83710 22369 ft 464 kts 349°
2026-05-01 13:57 16.54082 120.83129 22460 ft 464 kts 349°
2026-05-01 13:57 16.57270 120.82544 22552 ft 465 kts 349°
2026-05-01 13:58 16.60462 120.81959 22636 ft 466 kts 349°
2026-05-01 13:58 16.63657 120.81374 22713 ft 467 kts 349°
2026-05-01 13:58 16.66871 120.80784 22793 ft 467 kts 349°
2026-05-01 13:58 16.70075 120.80195 22871 ft 468 kts 349°
2026-05-01 13:59 16.73241 120.79613 22948 ft 468 kts 349°
2026-05-01 13:59 16.76453 120.79023 23028 ft 469 kts 349°
2026-05-01 13:59 16.79677 120.78430 23106 ft 470 kts 349°
2026-05-01 13:59 16.82907 120.77836 23184 ft 470 kts 349°
2026-05-01 14:00 16.86124 120.77244 23252 ft 471 kts 349°
2026-05-01 14:00 16.89374 120.76646 23318 ft 471 kts 349°
2026-05-01 14:00 16.92605 120.76051 23383 ft 472 kts 349°
2026-05-01 14:00 16.95845 120.75454 23447 ft 473 kts 349°
2026-05-01 14:01 16.99094 120.74856 23511 ft 473 kts 349°
2026-05-01 14:01 17.02292 120.74266 23575 ft 474 kts 349°
2026-05-01 14:01 17.05536 120.73669 23634 ft 474 kts 349°
2026-05-01 14:01 17.08799 120.73067 23695 ft 475 kts 349°
2026-05-01 14:02 17.12049 120.72468 23751 ft 475 kts 349°
2026-05-01 14:02 17.15325 120.71864 23806 ft 476 kts 349°
2026-05-01 14:02 17.18583 120.71262 23866 ft 476 kts 349°
2026-05-01 14:02 17.21852 120.70659 23917 ft 477 kts 349°
2026-05-01 14:03 17.25083 120.70062 23966 ft 477 kts 349°
2026-05-01 14:03 17.28399 120.69451 24018 ft 477 kts 350°
2026-05-01 14:03 17.31620 120.68861 24062 ft 478 kts 349°
2026-05-01 14:03 17.34895 120.68258 24107 ft 478 kts 349°
2026-05-01 14:04 17.38182 120.67652 24149 ft 479 kts 349°
2026-05-01 14:04 17.41466 120.67046 24195 ft 479 kts 349°
2026-05-01 14:04 17.44757 120.66439 24244 ft 479 kts 349°
2026-05-01 14:04 17.48044 120.65833 24286 ft 480 kts 349°
2026-05-01 14:05 17.51332 120.65226 24327 ft 480 kts 349°
2026-05-01 14:05 17.54632 120.64618 24367 ft 480 kts 349°
2026-05-01 14:05 17.57929 120.64010 24405 ft 481 kts 349°
2026-05-01 14:05 17.61237 120.63399 24442 ft 481 kts 349°
2026-05-01 14:06 17.64487 120.62799 24476 ft 481 kts 349°
2026-05-01 14:06 17.67807 120.62187 24511 ft 482 kts 349°
2026-05-01 14:06 17.71105 120.61580 24547 ft 482 kts 349°
2026-05-01 14:06 17.74405 120.60972 24583 ft 482 kts 349°
2026-05-01 14:07 17.77733 120.60357 24618 ft 483 kts 349°
2026-05-01 14:07 17.81027 120.59748 24656 ft 483 kts 349°
2026-05-01 14:07 17.84346 120.59134 24686 ft 483 kts 349°
2026-05-01 14:08 17.90932 120.57916 24753 ft 484 kts 349°
2026-05-01 14:08 17.94250 120.57303 24782 ft 484 kts 349°
2026-05-01 14:08 17.97568 120.56689 24808 ft 484 kts 349°
2026-05-01 14:08 18.00884 120.56076 24834 ft 484 kts 349°
2026-05-01 14:09 18.04213 120.55466 24860 ft 485 kts 350°
2026-05-01 14:09 18.07536 120.54851 24885 ft 485 kts 349°
2026-05-01 14:09 18.10862 120.54230 24910 ft 485 kts 349°
2026-05-01 14:09 18.14200 120.53604 24937 ft 485 kts 349°
2026-05-01 14:10 18.17502 120.53171 24946 ft 486 kts 356°
2026-05-01 14:10 18.20894 120.53183 24970 ft 486 kts
2026-05-01 14:10 18.24269 120.53362 24988 ft 486 kts
2026-05-01 14:10 18.27654 120.53614 25010 ft 486 kts
2026-05-01 14:11 18.31031 120.53897 25031 ft 487 kts
2026-05-01 14:11 18.37747 120.54475 25072 ft 487 kts
2026-05-01 14:11 18.41119 120.54758 25093 ft 487 kts
2026-05-01 14:12 18.44490 120.55035 25113 ft 487 kts
2026-05-01 14:12 18.47882 120.55309 25134 ft 487 kts
2026-05-01 14:12 18.51265 120.55581 25154 ft 488 kts
2026-05-01 14:12 18.54646 120.55851 25174 ft 488 kts
2026-05-01 14:13 18.58029 120.56122 25195 ft 488 kts
2026-05-01 14:13 18.60278 120.56302 25208 ft 488 kts
2026-05-01 14:13 18.64811 120.56666 25234 ft 488 kts
2026-05-01 14:13 18.68195 120.56938 25253 ft 488 kts
2026-05-01 14:14 18.71588 120.57217 25273 ft 488 kts
2026-05-01 14:14 18.74993 120.57492 25292 ft 489 kts
2026-05-01 14:14 18.78389 120.57763 25311 ft 489 kts
2026-05-01 14:14 18.81736 120.58030 25329 ft 489 kts
2026-05-01 14:15 18.85131 120.58301 25347 ft 489 kts
2026-05-01 14:15 18.88529 120.58573 25366 ft 489 kts
2026-05-01 14:15 18.91925 120.58846 25384 ft 489 kts
2026-05-01 14:15 18.95309 120.59119 25402 ft 489 kts
2026-05-01 14:16 18.98721 120.59394 25420 ft 490 kts
2026-05-01 14:16 19.02125 120.59669 25439 ft 490 kts
2026-05-01 14:16 19.05518 120.59943 25460 ft 490 kts
2026-05-01 14:16 19.08912 120.60217 25475 ft 490 kts
2026-05-01 14:17 19.12278 120.60494 25492 ft 490 kts
2026-05-01 14:17 19.15686 120.60773 25509 ft 490 kts
2026-05-01 14:17 19.19096 120.61048 25525 ft 490 kts
2026-05-01 14:17 19.22501 120.61320 25543 ft 491 kts
2026-05-01 14:18 19.25905 120.61593 25559 ft 491 kts
2026-05-01 14:18 19.29321 120.61868 25577 ft 491 kts
2026-05-01 14:18 19.32711 120.62142 25593 ft 491 kts
2026-05-01 14:18 19.34993 120.62327 25606 ft 491 kts
2026-05-01 14:19 19.39515 120.62694 25627 ft 491 kts
2026-05-01 14:19 19.42922 120.62972 25643 ft 491 kts
2026-05-01 14:19 19.46335 120.63255 25662 ft 491 kts
2026-05-01 14:19 19.49768 120.63533 25940 ft 485 kts
2026-05-01 14:20 19.53062 120.63798 26432 ft 475 kts
2026-05-01 14:20 19.59501 120.64317 27459 ft 455 kts
2026-05-01 14:20 19.62632 120.64571 27977 ft 445 kts
2026-05-01 14:21 19.65690 120.64819 28491 ft 436 kts
2026-05-01 14:21 19.68686 120.65063 29003 ft 427 kts
2026-05-01 14:21 19.71628 120.65302 29515 ft 418 kts
2026-05-01 14:22 19.77285 120.65763 30532 ft 400 kts
2026-05-01 14:22 19.80029 120.65986 31040 ft 391 kts
2026-05-01 14:22 19.82708 120.66204 31549 ft 381 kts
2026-05-01 14:22 19.85345 120.66419 31856 ft 378 kts
2026-05-01 14:23 19.90664 120.66852 31871 ft 388 kts
2026-05-01 14:23 19.96070 120.67292 31867 ft 397 kts
2026-05-01 14:24 20.01686 120.67750 31865 ft 412 kts
2026-05-01 14:24 20.07515 120.68227 31863 ft 429 kts
2026-05-01 14:25 20.13582 120.68723 31863 ft 444 kts
2026-05-01 14:25 20.19842 120.69235 31762 ft 460 kts
2026-05-01 14:26 20.23050 120.69498 31878 ft 463 kts
2026-05-01 14:26 20.29387 120.70018 33087 ft 443 kts
2026-05-01 14:26 20.32398 120.70266 34033 ft 425 kts
2026-05-01 14:27 20.35292 120.70503 34683 ft 415 kts
2026-05-01 14:27 20.38173 120.70740 34971 ft 413 kts
2026-05-01 14:27 20.41027 120.70974 35007 ft 418 kts
2026-05-01 14:28 20.49881 120.71699 34997 ft 433 kts
2026-05-01 14:28 20.55960 120.72199 34996 ft 442 kts
2026-05-01 14:29 20.62124 120.72706 34996 ft 451 kts
2026-05-01 14:30 20.71635 120.73490 34996 ft 463 kts
2026-05-01 14:30 20.74869 120.73757 34996 ft 467 kts
2026-05-01 14:31 20.84724 120.74570 34997 ft 478 kts
2026-05-01 14:31 20.91375 120.75119 34997 ft 485 kts
2026-05-01 14:32 20.98147 120.75581 34997 ft 491 kts 359°
2026-05-01 14:32 21.04935 120.74600 34997 ft 496 kts 347°
2026-05-01 14:33 21.11689 120.72929 34997 ft 501 kts 346°
2026-05-01 14:33 21.18476 120.71156 34997 ft 506 kts 346°
2026-05-01 14:34 21.25405 120.69361 34997 ft 511 kts 346°
2026-05-01 14:34 21.32304 120.67593 34998 ft 515 kts 346°
2026-05-01 14:35 21.39287 120.65808 34998 ft 519 kts 346°
2026-05-01 14:35 21.46366 120.63996 34999 ft 522 kts 346°
2026-05-01 14:36 21.53286 120.62223 34999 ft 525 kts 346°
2026-05-01 14:36 21.60413 120.60397 34999 ft 527 kts 346°
2026-05-01 14:37 21.63844 120.59514 34999 ft 528 kts 346°
2026-05-01 14:37 21.69524 120.58051 34999 ft 530 kts 346°
2026-05-01 14:38 21.76695 120.56200 34999 ft 532 kts 346°
2026-05-01 14:38 21.83861 120.54360 34999 ft 533 kts 346°
2026-05-01 14:39 21.91079 120.52497 35000 ft 534 kts 346°
2026-05-01 14:39 21.98334 120.50621 35000 ft 535 kts 346°
2026-05-01 14:40 22.05587 120.48747 35000 ft 536 kts 346°
2026-05-01 14:40 22.12806 120.46880 35000 ft 537 kts 346°
2026-05-01 14:41 22.20095 120.44994 35000 ft 537 kts 346°
2026-05-01 14:41 22.27379 120.43107 35000 ft 538 kts 346°
2026-05-01 14:42 22.34660 120.41219 35000 ft 538 kts 346°
2026-05-01 14:42 22.41898 120.39339 35000 ft 539 kts 346°
2026-05-01 14:43 22.49191 120.37444 35000 ft 539 kts 346°
2026-05-01 14:43 22.56479 120.35548 35000 ft 539 kts 346°
2026-05-01 14:44 22.63776 120.33647 35000 ft 539 kts 346°
2026-05-01 14:44 22.74730 120.30790 35000 ft 540 kts 346°
2026-05-01 14:45 22.85709 120.27928 35000 ft 540 kts 346°
2026-05-01 14:46 22.92957 120.26029 35000 ft 540 kts 346°
2026-05-01 14:46 23.03917 120.23150 35000 ft 540 kts 346°
2026-05-01 14:47 23.11293 120.21615 35001 ft 540 kts 356°
2026-05-01 14:47 23.15054 120.21711 35000 ft 540 kts
2026-05-01 14:48 23.22345 120.23696 34999 ft 541 kts 17°
2026-05-01 14:48 23.32998 120.27605 35000 ft 541 kts 19°
2026-05-01 14:49 23.47283 120.32872 35000 ft 541 kts 18°
2026-05-01 14:50 23.61532 120.38062 35000 ft 541 kts 18°
2026-05-01 14:51 23.72264 120.41963 35000 ft 541 kts 18°
2026-05-01 14:52 23.83015 120.45877 35000 ft 541 kts 18°
2026-05-01 14:53 23.93253 120.50804 35004 ft 541 kts 34°
2026-05-01 14:53 23.99426 120.55587 35000 ft 542 kts 36°
2026-05-01 14:54 24.05471 120.60512 35000 ft 542 kts 37°
2026-05-01 14:54 24.11472 120.65410 35000 ft 542 kts 37°
2026-05-01 14:55 24.17535 120.70329 35000 ft 542 kts 36°
2026-05-01 14:55 24.23607 120.75246 35000 ft 542 kts 36°
2026-05-01 14:56 24.29674 120.80164 35000 ft 542 kts 36°
2026-05-01 14:56 24.35732 120.85081 35000 ft 542 kts 36°
2026-05-01 14:57 24.41813 120.90023 34999 ft 542 kts 36°
2026-05-01 14:57 24.50845 120.97381 35000 ft 543 kts 37°
2026-05-01 14:58 24.56934 121.02346 35000 ft 543 kts 36°
2026-05-01 14:58 24.63004 121.07297 35000 ft 543 kts 37°
2026-05-01 14:59 24.69030 121.12220 35000 ft 543 kts 37°
2026-05-01 14:59 24.75125 121.17208 35000 ft 543 kts 37°
2026-05-01 15:00 24.84171 121.24622 35000 ft 543 kts 37°
2026-05-01 15:01 24.90242 121.29606 35000 ft 543 kts 37°
2026-05-01 15:01 24.96304 121.34589 35000 ft 543 kts 37°
2026-05-01 15:02 25.02328 121.39546 35000 ft 543 kts 37°
2026-05-01 15:02 25.08384 121.44537 35000 ft 543 kts 37°
2026-05-01 15:03 25.14446 121.49538 35000 ft 544 kts 37°
2026-05-01 15:03 25.20021 121.55180 35000 ft 544 kts 47°
2026-05-01 15:04 25.25042 121.61395 35000 ft 544 kts 49°
2026-05-01 15:04 25.30023 121.67730 35000 ft 544 kts 49°
2026-05-01 15:05 25.34963 121.74011 35000 ft 545 kts 49°
2026-05-01 15:05 25.39954 121.80341 35000 ft 545 kts 49°
2026-05-01 15:06 25.44942 121.86664 35000 ft 545 kts 49°
2026-05-01 15:06 25.49938 121.93005 35000 ft 546 kts 49°
2026-05-01 15:07 25.54892 121.99304 35000 ft 546 kts 49°
2026-05-01 15:07 25.59894 122.05640 34997 ft 546 kts 47°
2026-05-01 15:08 25.65719 122.11042 35000 ft 545 kts 36°
2026-05-01 15:08 25.71870 122.15881 35000 ft 545 kts 35°
2026-05-01 15:09 25.78141 122.20721 35000 ft 546 kts 35°
2026-05-01 15:09 25.84323 122.25513 35000 ft 546 kts 35°
2026-05-01 15:10 25.90557 122.30373 35000 ft 546 kts 35°
2026-05-01 15:10 25.99869 122.37655 35000 ft 546 kts 35°
2026-05-01 15:11 26.09155 122.44931 35000 ft 546 kts 35°
2026-05-01 15:12 26.15384 122.49819 35000 ft 546 kts 35°
2026-05-01 15:12 26.24702 122.57147 35000 ft 546 kts 35°
2026-05-01 15:14 26.40237 122.69419 35000 ft 547 kts 35°
2026-05-01 15:14 26.49517 122.76766 35000 ft 547 kts 35°
2026-05-01 15:15 26.61929 122.86612 35000 ft 547 kts 35°
2026-05-01 15:16 26.74308 122.96415 35000 ft 547 kts 35°
2026-05-01 15:18 26.89805 123.08772 35000 ft 547 kts 35°
2026-05-01 15:19 27.02176 123.18669 35000 ft 547 kts 36°
2026-05-01 15:19 27.11461 123.26119 35000 ft 547 kts 36°
2026-05-01 15:20 27.20751 123.33588 35000 ft 547 kts 36°
2026-05-01 15:21 27.26935 123.38568 35000 ft 547 kts 36°
2026-05-01 15:21 27.33123 123.43559 35000 ft 547 kts 36°
2026-05-01 15:22 27.42404 123.51057 35000 ft 547 kts 36°
2026-05-01 15:22 27.48547 123.56029 35000 ft 547 kts 36°
2026-05-01 15:23 27.54745 123.61052 35000 ft 547 kts 36°
2026-05-01 15:23 27.60931 123.66073 35000 ft 547 kts 36°
2026-05-01 15:24 27.66999 123.71197 35000 ft 547 kts 38°
2026-05-01 15:24 27.71948 123.75644 35000 ft 547 kts 39°
2026-05-01 15:25 27.77888 123.81000 35000 ft 547 kts 38°
2026-05-01 15:25 27.83875 123.86348 35000 ft 547 kts 38°
2026-05-01 15:26 27.89856 123.91668 35000 ft 547 kts 38°
2026-05-01 15:26 27.95848 123.97000 35000 ft 547 kts 38°
2026-05-01 15:27 28.01828 124.02338 35000 ft 547 kts 38°
2026-05-01 15:28 28.10756 124.10315 35000 ft 547 kts 38°
2026-05-01 15:28 28.16744 124.15673 35000 ft 547 kts 38°
2026-05-01 15:29 28.25691 124.23697 35000 ft 547 kts 38°
2026-05-01 15:30 28.37631 124.34435 35000 ft 547 kts 38°
2026-05-01 15:31 28.55530 124.50591 35000 ft 547 kts 38°
2026-05-01 15:32 28.67427 124.61370 35000 ft 547 kts 38°
2026-05-01 15:34 28.86983 124.74273 35000 ft 546 kts 19°